Tracking 28790 objects as of 19-Apr-2024
HD Live streaming from Space Station
objects crossing your sky now

FENGYUN 1C DEB

Track FENGYUN 1C DEB now!
10-day predictions


NORAD ID: 30208
Int'l Code: 1999-025VR
Perigee: 804.5 km
Apogee: 853.6 km
Inclination: 98.6 °
Period: 101.3 minutes
Semi major axis: 7200 km
RCS: 0.035 m2 (small)
Launch date: May 10, 1999
Source: People's Republic of China (PRC)
Launch site: Taiyaun Space Center, China (TSC)

Note: This is SATELLITE DEBRIS
Your satellite tracking list
Your tracking list is empty




NASA's NSSDC Master Catalog

Two Line Element Set (TLE):
1 30208U 99025VR  24109.96531517  .00002541  00000-0  11841-2 0  9990
2 30208  98.5633 122.1190 0034105 219.1728 200.1554 14.21026559892683
Source of the keplerian elements: AFSPC